Tracking 28052 objects as of 25-Sep-2023
HD Live streaming from Space Station
objects crossing your sky now

STARLINK-1732

Track STARLINK-1732 now!
10-day predictions
STARLINK-1732 is classified as:


NORAD ID: 46584
Int'l Code: 2020-070BE
Perigee: 553.3 km
Apogee: 555.4 km
Inclination: 53.1 °
Period: 95.6 minutes
Semi major axis: 6925 km
RCS: Unknown
Launch date: October 6, 2020
Source: United States (US)
Launch site: AIR FORCE EASTERN TEST RANGE (AFETR)
Your satellite tracking list
Your tracking list is empty




NASA's NSSDC Master Catalog

Two Line Element Set (TLE):
1 46584U 20070BE  23267.86340060  .00000900  00000-0  79341-4 0  9990
2 46584  53.0528 222.6292 0001548  95.8429 264.2736 15.06400814164305
Source of the keplerian elements: AFSPC